Dewpoint
59 61 63 62 63 65 67 66 65 65 64 62 62 61 62 62 62 61 62 61 62 62 63 62 61 61 61 61 62 63 64 64 66 65 64 65 64 64 65 65 62 58 63
60 61 62 61 63 65 66 65 64 63 62 62 62 62 62 62 62 62 62 61 61 60 60 60 59 59 59 60 62 63 64 64 64 65 64 62 63 63 64 64 63 62 63
60 61 61 62 65 65 63 63 62 61 62 62 61 60 58 57 56 55 54 55 57 57 58 57 55 56 58 60 64 66 66 65 65 64 64 60 60 64 64 64 64 64 64
60 62 60 61 64 64 64 63 61 62 61 58 56 53 51 52 53 55 56 59 59 58 57 57 60 61 62 64 66 66 65 65 64 64 62 62 60 65 65 65 64 65 65
61 62 61 62 64 64 63 62 60 58 57 51 52 51 52 53 54 56 57 58 57 56 61 64 64 64 65 65 65 65 65 65 64 63 63 63 62 62 65 65 63 64 65
59 61 62 62 61 63 61 58 53 53 53 54 54 52 52 52 52 55 57 57 55 58 61 59 59 58 59 61 61 61 63 63 62 62 62 63 62 63 62 65 65 64 63
57 59 60 61 60 62 60 53 51 51 53 53 52 52 55 54 54 56 58 57 55 57 61 59 56 56 58 59 59 59 59 59 57 58 60 61 63 63 63 63 63 63 63
55 59 59 60 61 60 57 54 53 52 52 52 51 52 56 56 57 56 57 56 54 54 55 57 57 56 56 55 57 58 59 53 50 51 53 54 59 61 62 63 63 63 63
54 56 59 59 58 56 54 52 51 50 50 53 52 57 58 58 57 57 56 55 52 52 53 53 54 55 54 54 54 55 57 54 46 49 48 50 56 56 57 61 62 63 63
49 52 54 51 50 52 53 55 55 56 55 54 54 55 55 55 55 54 53 53 51 50 49 49 50 51 52 53 53 52 51 51 48 48 48 52 54 53 53 56 58 61 61
43 46 46 46 49 50 50 51 53 53 54 53 51 50 48 47 48 49 51 50 48 48 46 46 46 45 42 46 49 50 47 46 47 48 50 58 52 51 52 54 55 56 57
40 42 43 46 48 46 45 49 49 48 47 47 47 47 45 46 45 45 46 45 43 42 42 43 42 40 38 38 40 42 44 47 47 49 53 57 52 49 49 51 52 53 54
42 43 44 47 48 45 47 47 47 47 47 48 47 43 43 41 41 40 38 36 35 35 33 34 34 35 39 39 40 43 44 45 47 49 53 54 55 54 50 49 50 51 52
44 45 46 47 46 47 47 46 47 46 47 46 45 44 41 37 38 37 36 35 34 34 33 34 34 36 37 39 40 40 42 43 45 48 47 50 55 54 52 51 50 50 51
45 45 45 46 46 46 47 48 49 48 47 47 45 44 40 37 38 36 37 34 34 33 32 32 33 34 33 35 36 37 37 38 38 38 39 44 48 53 55 54 53 52 53
45 43 42 44 47 46 48 49 49 49 48 46 45 43 42 39 39 36 35 34 34 33 33 33 33 32 32 32 33 34 34 33 32 32 32 33 35 42 48 53 53 53 52
44 42 41 43 47 46 48 48 48 48 48 46 45 45 42 40 41 38 37 35 35 36 35 34 33 32 32 29 31 32 31 31 30 30 28 28 27 29 35 41 48 49 50
42 41 41 41 45 47 48 47 47 49 48 45 44 44 43 41 41 38 36 35 36 35 34 34 33 32 31 31 29 29 30 30 29 29 28 27 26 24 25 34 41 45 46
42 41 40 44 44 47 48 47 48 50 48 45 43 43 44 41 41 38 36 36 35 34 34 33 34 33 31 30 28 30 31 29 28 27 28 27 27 25 23 24 33 41 42
42 41 42 43 45 48 47 48 47 49 48 46 43 42 44 42 41 38 37 36 35 33 33 34 34 34 32 31 27 30 31 30 29 28 28 25 26 26 25 25 24 32 34
42 40 41 42 45 46 45 45 46 46 48 46 44 43 42 42 40 39 37 36 35 34 35 34 33 33 31 31 28 29 30 32 31 29 29 28 28 26 27 25 24 26 30
41 40 40 41 44 45 45 46 46 47 49 46 44 43 41 42 42 39 37 36 35 34 34 34 33 31 31 32 28 28 26 26 28 26 28 28 30 27 27 26 26 25 25
41 40 40 40 43 44 45 46 47 49 48 45 43 41 40 41 41 39 38 37 37 34 33 33 33 33 29 30 33 27 26 24 25 25 25 27 29 29 30 28 27 29 26
42 41 40 40 42 44 46 45 45 44 45 46 44 41 40 41 40 39 38 37 36 35 35 33 34 34 33 31 31 32 32 31 24 20 22 24 28 27 26 24 28 29 27
42 41 41 41 42 44 45 45 46 45 46 48 45 42 40 41 40 39 38 37 37 36 37 37 35 34 33 32 31 30 30 28 28 25 20 19 20 22 23 20 28 26 28
42 42 42 41 41 45 45 46 46 47 47 46 44 41 39 40 40 38 37 38 38 37 34 31 29 27 25 24 22 21 19 19 18 18 16 15 15 16 19 21 24 26 26
Wind_Speed
4 3 2 4 6 8 9 12 13 15 13 13 13 13 13 14 13 13 14 13 15 14 14 14 13 13 12 13 12 11 9 8 8 10 10 10 10 10 10 9 6 9 9
8 5 2 3 5 7 12 14 14 13 12 12 13 13 13 13 13 13 13 13 13 13 13 13 13 13 13 13 13 12 10 8 7 5 8 8 9 10 9 9 8 9 8
8 6 5 2 8 12 11 11 12 11 12 12 13 13 13 13 13 13 13 14 14 13 13 12 12 12 13 14 15 15 15 14 10 6 6 8 10 9 9 9 9 8 7
8 6 6 4 9 10 11 13 13 11 10 12 13 14 15 15 15 15 16 15 16 15 14 14 14 14 15 16 19 19 19 18 16 7 7 8 8 8 7 6 8 8 9
7 6 7 4 10 10 14 15 10 9 11 12 14 17 17 17 16 17 18 19 20 20 19 20 20 20 19 18 19 19 18 17 16 13 11 10 8 9 5 7 5 6 9
7 5 4 4 9 13 13 12 10 11 12 14 16 16 17 17 17 18 19 19 21 22 21 22 22 23 22 21 21 20 20 16 15 16 15 13 12 9 7 5 5 6 5
7 5 6 8 6 10 11 11 13 14 15 16 17 18 17 19 18 19 21 21 21 22 21 21 23 23 22 22 22 21 19 19 17 17 16 17 17 19 12 8 9 10 8
8 8 7 9 9 11 9 10 12 13 13 13 14 17 18 18 18 19 20 21 21 21 21 21 21 22 22 22 21 20 20 17 18 17 17 17 21 21 19 20 11 13 12
8 9 9 9 11 10 9 10 10 9 11 11 14 17 19 19 20 21 21 21 22 22 21 20 20 20 21 21 20 19 19 18 19 17 18 18 20 22 21 21 20 18 19
9 10 9 10 10 10 8 11 12 14 13 15 17 17 17 18 19 19 19 21 21 21 21 20 19 18 19 19 18 17 16 15 17 16 18 17 20 22 21 22 22 24 22
8 8 9 10 9 9 9 9 10 14 16 16 16 16 14 12 14 17 18 19 20 21 20 20 19 17 15 16 16 15 12 13 14 14 15 21 18 20 20 21 22 22 20
11 9 8 7 8 9 8 9 10 11 11 12 12 12 12 13 13 14 16 19 19 18 19 19 18 17 13 11 10 12 10 10 12 13 16 23 19 18 18 18 19 20 21
14 9 9 7 6 9 8 8 8 9 10 10 11 11 12 12 11 11 11 11 12 15 13 15 15 14 15 12 12 12 11 10 10 11 19 22 20 19 18 17 17 16 17
14 12 9 8 8 8 9 9 9 10 9 9 9 9 11 11 12 12 11 11 13 11 13 13 13 14 16 16 15 15 15 12 10 9 16 22 22 19 17 16 16 16 16
14 13 10 9 9 9 10 10 9 10 9 10 9 9 10 12 12 12 12 12 12 12 12 13 13 13 14 15 15 15 15 15 14 11 11 22 23 23 21 19 18 17 17
14 13 10 11 9 9 10 10 10 9 11 10 9 10 11 11 12 12 13 13 13 13 13 13 13 12 12 12 14 15 15 14 15 14 12 14 22 24 23 22 21 19 17
16 14 12 11 11 10 11 11 10 9 10 10 10 9 11 11 12 12 12 13 12 11 12 11 12 12 11 11 12 12 12 13 14 15 14 13 14 18 22 22 20 20 19
16 16 12 11 14 12 12 11 10 9 10 10 10 9 10 10 11 12 12 12 9 11 11 13 11 12 10 8 8 8 9 10 12 12 13 14 14 14 15 21 20 20 19
18 17 14 14 15 13 11 9 9 9 9 9 9 9 10 10 10 11 11 10 10 11 10 10 12 11 11 7 4 4 5 7 9 10 12 13 14 14 14 16 19 16 18
16 16 15 15 15 13 11 10 9 8 7 7 8 8 10 9 10 10 10 10 9 9 10 9 12 11 9 7 5 1 1 4 6 7 9 10 12 13 14 15 14 12 15
16 17 17 18 16 15 13 13 10 10 8 7 7 8 9 9 9 9 9 9 9 10 10 10 7 10 11 11 8 6 3 3 3 7 6 8 11 12 12 12 12 11 9
22 20 19 20 19 16 14 10 6 8 6 7 7 7 7 8 8 8 8 8 7 8 10 12 11 8 7 9 9 6 8 8 1 16 5 9 12 13 15 13 12 11 10
23 23 22 21 20 17 15 11 9 9 7 6 7 7 6 7 7 8 8 7 8 8 9 8 8 8 9 7 7 7 8 8 18 3 14 7 19 15 14 15 11 15 11
26 23 21 20 20 17 17 15 17 14 12 7 8 7 8 7 7 7 7 8 8 7 7 7 7 7 7 8 5 6 4 8 10 13 9 14 12 17 18 16 14 12 9
23 24 22 21 20 18 18 16 16 13 9 9 9 11 9 7 7 7 8 8 7 7 8 8 9 10 9 7 7 8 7 10 8 15 20 17 14 14 14 17 12 11 10
20 21 21 22 21 19 19 16 16 16 13 11 11 11 9 8 8 8 9 8 8 9 10 10 11 12 10 8 6 7 7 9 12 13 16 17 17 16 15 14 9 10 10
Wind_Direction
139 123 83 82 93 94 88 85 81 76 73 72 69 67 62 59 58 55 54 52 47 50 51 54 53 49 47 44 41 38 33 31 33 50 56 57 61 68 70 64 57 69 65
135 133 114 97 113 104 104 88 78 76 73 71 68 67 63 58 56 54 51 51 51 52 54 53 51 47 42 38 35 32 28 31 39 57 60 75 63 58 55 55 46 62 61
131 132 138 107 111 98 95 91 85 75 68 68 69 68 65 63 61 58 57 54 53 53 55 53 49 45 42 39 41 36 42 45 42 72 84 59 57 54 55 47 44 47 57
133 129 119 119 115 103 92 81 72 66 65 60 63 64 64 65 65 62 59 54 57 60 60 55 49 49 54 56 54 55 53 51 57 74 73 46 48 57 58 50 51 17 45
128 130 139 142 119 103 89 76 75 70 66 63 69 71 69 65 63 62 56 55 58 61 60 60 59 61 62 59 60 58 57 55 59 61 51 39 36 33 41 51 65 43 29
122 121 116 52 84 94 95 95 84 78 72 72 70 70 69 67 66 65 61 61 61 61 63 62 63 62 58 56 57 55 53 51 58 59 52 47 32 18 31 50 47 28 21
118 103 107 80 98 89 86 95 91 86 79 75 71 67 69 71 70 68 66 65 64 63 63 62 62 59 55 54 54 52 50 52 58 56 51 46 38 35 32 35 31 10 356
118 110 103 101 78 76 81 70 66 71 71 68 67 71 82 73 71 73 72 69 66 66 65 63 59 57 56 56 52 47 45 46 56 53 49 44 32 36 38 36 29 25 352
116 112 104 97 96 76 66 67 67 75 70 66 73 76 73 71 68 69 71 73 67 63 63 61 60 57 55 53 51 49 47 44 59 54 49 45 41 40 35 34 33 25 21
121 119 112 109 106 100 88 69 72 77 77 86 91 84 79 74 72 71 74 72 70 65 62 61 60 59 57 50 47 46 47 55 55 51 50 44 44 42 39 37 34 34 31
122 125 127 126 118 113 104 94 85 86 94 91 92 84 80 77 74 74 69 68 67 66 61 59 57 54 57 56 47 42 45 51 54 51 47 16 42 44 43 43 38 34 33
145 142 135 133 122 109 102 101 93 90 90 91 90 85 80 76 74 76 68 65 63 65 63 58 53 51 50 48 42 42 47 50 53 50 40 23 29 37 37 40 42 35 31
154 153 154 140 121 115 107 106 98 94 93 87 84 87 87 82 75 71 69 62 63 59 59 61 58 56 54 50 49 48 49 52 48 49 34 31 28 23 27 30 33 35 34
165 162 155 140 130 110 110 104 107 106 101 100 95 89 90 84 78 76 73 67 64 59 63 61 61 58 57 55 55 55 52 51 45 51 42 35 33 28 23 22 22 25 31
171 170 169 159 149 133 120 120 116 118 111 111 103 92 95 92 86 83 74 69 65 61 62 62 58 55 55 55 56 58 58 55 52 50 48 39 38 34 26 23 20 19 23
174 175 170 173 164 147 133 132 124 121 121 115 110 101 93 94 92 86 79 71 65 60 59 60 56 57 56 57 60 59 60 60 57 52 47 43 39 35 32 23 20 16 18
179 169 170 168 171 161 144 138 131 127 129 121 114 103 97 93 90 85 80 72 66 63 64 62 61 60 60 57 58 60 64 62 59 52 45 38 29 33 29 24 19 15 10
173 174 164 165 167 161 153 145 138 133 130 122 119 112 102 97 94 88 83 75 70 64 59 55 48 55 54 53 59 60 66 65 62 56 48 39 29 18 15 17 15 15 11
174 169 165 163 162 158 149 144 137 131 128 124 119 117 111 101 94 93 88 82 74 69 61 55 55 48 39 32 45 61 64 67 58 56 49 41 33 25 14 9 7 10 9
171 168 161 164 162 155 144 138 128 125 119 125 119 118 120 113 108 101 91 84 76 71 60 56 54 53 40 14 360 315 103 84 63 52 45 35 32 20 12 6 0 360 10
170 168 167 167 169 157 152 151 149 146 137 126 123 124 122 123 116 107 99 87 76 69 58 45 46 36 28 10 0 345 248 218 55 14 21 26 18 16 9 1 357 353 352
175 177 174 176 172 174 167 162 157 149 141 132 131 127 130 129 121 111 106 94 81 73 57 46 36 25 23 22 2 329 338 323 335 338 341 346 3 356 352 352 345 349 342
183 181 182 180 177 178 171 150 128 113 122 137 145 137 131 122 124 118 110 99 81 70 63 56 42 32 6 15 20 2 334 329 328 8 330 345 344 342 343 339 329 329 322
190 182 182 181 179 180 175 176 171 175 172 180 166 145 131 130 126 120 105 93 85 81 68 46 38 25 1 4 351 5 328 316 320 315 326 325 337 328 333 336 337 329 338
183 183 180 179 180 180 182 182 176 178 173 154 152 145 138 130 121 107 92 90 86 73 67 54 48 48 43 36 22 358 339 324 317 313 314 328 323 322 316 324 338 359 5
182 181 181 179 183 181 183 185 183 179 170 158 161 160 153 139 119 100 101 89 76 76 73 74 73 63 58 52 31 13 351 336 324 318 312 316 320 317 320 308 338 349 351